MYSat 1
1 44045U 18092F   22258.48602557  .00078642  00000-0  83402-3 0  9990
2 44045  51.6294 340.7689 0007531  54.5253 305.6443 15.63366024201917
AstroCast 0.2
1 44083U 19018F   22258.10574348  .00020143  00000-0  72747-3 0  9999
2 44083  97.3127 315.3177 0010613 160.3371 199.8281 15.28459701192179
AISTechSat 3
1 44103U 19018AB  22258.39234605  .00013865  00000-0  49585-3 0  9999
2 44103  97.2988 315.8957 0012186 168.9119 191.2392 15.28844808192386
AISat 1
1 44104U 19018AC  22258.20240576  .00013542  00000-0  36497-3 0  9994
2 44104  97.3914 341.7359 0051127 170.0432 190.1838 15.36588328193375
Prox-1
1 44339U 19036A   22258.56920325  .00004171  00000-0  89169-3 0  9992
2 44339  24.0018 344.3913 0010791 119.9535 240.2029 14.55489837171493
Oculus-ASR
1 44348U 19036K   22258.41400989  .00105422 -40696-5  85606-3 0  9999
2 44348  28.5010 287.2565 0208325 248.0012 109.8334 15.45873399178438
NO-104
1 44354U 19036R   22258.42585737  .00118407 -33550-5  89686-3 0  9992
2 44354  28.5244 270.4809 0197566 271.4460  86.3519 15.49254042178605
Move-IIb
1 44398U 19038N   22258.58133457  .00015492  00000-0  71023-3 0  9991
2 44398  97.6329 228.8974 0021073 168.8993 191.2715 15.20348530176723
SONATE
1 44400U 19038Q   22258.54880784  .00005593  00000-0  29862-3 0  9998
2 44400  97.6463 227.5391 0023187 177.9208 182.2121 15.15314133176573
BeeSat 9
1 44412U 19038AC  22258.46269223  .00010529  00000-0  51768-3 0  9996
2 44412  97.6449 228.5193 0019822 176.9300 183.2058 15.18047337176341
JAISAT-1
1 44419U 19038F   22258.48625449  .00010178  00000-0  49405-3 0  9996
2 44419  97.6451 229.4502 0018962 173.6160 186.5319 15.18518350176712
LightSail-2
1 44420U 19036AC  22258.31208604  .00222689  00000-0  21262-1 0  9999
2 44420  23.9986 257.3918 0006884 217.1130 142.8894 14.91028781170453
Taurus 1
1 44530U 19059C   22258.30125221  .00002248  00000-0  62515-3 0  9993
2 44530  98.5499 357.7045 0013355 202.4860 157.5774 14.47362059158845
Duchifat 3
1 44854U 19089C   22258.42539243  .00004075  00000-0  31421-3 0  9993
2 44854  36.9667 286.7592 0008689 237.3596 122.6374 15.01575611151463
OPS-SAT
1 44878U 19092F   22258.47593430  .00014394  00000-0  64334-3 0  9990
2 44878  97.4820  81.7438 0012748  31.5937 328.6062 15.21362565151879
TO-108
1 44881U 19093C   22258.52583419  .00000620  00000-0  85135-4 0  9997
2 44881  97.8887 336.4271 0013634 252.2315 107.7420 14.81812745148114
FloripaSat 1
1 44885U 19093G   22258.47079690  .00002056  00000-0  25674-3 0  9992
2 44885  97.8931 337.9044 0013141 257.6182 102.3577 14.83405300148195
RS-44
1 44909U 19096E   22258.49199379  .00000037  00000-0  93969-4 0  9991
2 44909  82.5252 170.4711 0218329 109.0890 253.3991 12.79714835127026
BY70-2
1 45857U 20042B   22258.32964232  .00007400  00000-0  96667-3 0  9995
2 45857  97.9514 334.3512 0010821 178.9969 181.1339 14.80728666118754
UPMSat 2
1 46276U 20061E   22258.19206692  .00005784  00000-0  28156-3 0  9997
2 46276  97.3840 326.9679 0001447 149.8978 210.2339 15.18753741112491
AmicalSat
1 46287U 20061R   22258.48706516  .00006405  00000-0  36202-3 0  9993
2 46287  97.4383 326.0854 0001891   4.4520 355.6728 15.13429457112084
SALSAT
1 46495U 20068K   22258.40565479  .00003458  00000-0  24864-3 0  9990
2 46495  97.7331 199.7727 0015808 338.0809  21.9739 15.04837581107714
BY70-3
1 46839U 20079N   22258.48664958  .00032236  00000-0  67062-3 0  9997
2 46839  97.1912 329.5775 0004661  22.5726 103.2965 15.45558191104139
CAPE 3
1 47309U 21002A   22258.54190396  .00012555  00000-0  48276-3 0  9992
2 47309  60.6849  25.3228 0036077  37.2113 323.1465 15.26203524 92195
AO-109
1 47311U 21002C   22258.50214854  .00011132  00000-0  42656-3 0  9993
2 47311  60.6864  22.9540 0032004  37.6265 322.7054 15.26551178 92205
MiTEE 1
1 47314U 21002F   22258.55617492  .00024318  00000-0  75649-3 0  9994
2 47314  60.6832  13.2981 0029439  29.7691 330.5068 15.32868017 92390
ExoCube 2
1 47319U 21002L   22258.52714742  .00010295  00000-0  40036-3 0  9993
2 47319  60.6853  24.1355 0033330  38.3674 321.9776 15.26094275 92150
UVSQ-SAT
1 47438U 21006AB  22258.43570849  .00009190  00000-0  47330-3 0  9993
2 47438  97.4285 315.6099 0010587 329.1145  30.9465 15.16573104 90911
YUSAT 1
1 47439U 21006AC  22258.11182972  .00009333  00000-0  47269-3 0  9995
2 47439  97.4290 315.4647 0010396 329.7665  30.2968 15.17160052 90877
SOMP 2b
1 47445U 21006AJ  22258.38859502  .00008720  00000-0  45415-3 0  9991
2 47445  97.4253 315.1507 0010385 334.1081  25.9631 15.16193460 90893
IDEASSat
1 47458U 21006AX  22258.11610607  .00007071  00000-0  37092-3 0  9997
2 47458  97.4344 315.4633 0009552 334.1571  25.9184 15.16019258 90849
CubeSX-Sirius-HSE
1 47951U 21022V   22258.49863602  .00004193  00000-0  27501-3 0  9995
2 47951  97.5191 156.1139 0020141 193.8573 291.3553 15.08048872 81561
CubeSX-HSE
1 47952U 21022W   22258.48129808  .00005036  00000-0  32893-3 0  9995
2 47952  97.5192 156.1246 0020192 193.9042 284.5559 15.08110971 81560
KSU-Cubesat
1 47954U 21022Y   22258.27577798  .00007256  00000-0  46838-3 0  9999
2 47954  97.5183 156.0622 0019803 193.3475 166.7233 15.08396662 81260
GRBAlpha
1 47959U 21022AD  22258.47525581  .00005349  00000-0  34878-3 0  9991
2 47959  97.5194 156.1623 0020046 194.4588 269.9473 15.08144937 80387
Orbicraft-Zorkiy
1 47960U 21022AE  22258.57567225  .00004921  00000-0  31969-3 0  9998
2 47960  97.5216 156.4367 0019498 192.7350 286.3835 15.08325644 81099
STECCO
1 47962U 21022AG  22258.50989583  .00008384  00000-0  50966-3 0  9993
2 47962  97.5185 157.2933 0015197 184.1715 165.2661 15.10613193 80459
DO-111
1 47963U 21022AH  22258.52449947  .00020822  00000-0  10863-2 0  9993
2 47963  97.5207 158.9407 0016070 172.6003 187.5470 15.15858096 80589
MO-110
1 47964U 21022AJ  22258.26820327  .00011267  00000-0  67508-3 0  9992
2 47964  97.5187 157.3722 0017867 181.8768 178.2398 15.11018482 80449
FEES
1 48082U 21022AL  22258.22516060  .00015113  00000-0  88331-3 0  9997
2 48082  97.5190 157.3453 0014181 176.1958 183.9383 15.11894835 80148
RamSat
1 48850U 98067SL  22257.32680141  .00260478  00000-0  86813-3 0  9994
2 48850  51.6330 218.5925 0005006  88.3575 271.8004 15.88978912 71361
TUBIN
1 48900U 21059X   22258.44294115  .00004292  00000-0  23665-3 0  9999
2 48900  97.5652  27.1125 0010658 147.0187 286.6477 15.14474451 67530
IT-SPINS
1 49017U 21013G   22258.48851022  .00011416  00000-0  42361-3 0  9999
2 49017  51.5961 328.3323 0008680  41.1350 319.0282 15.28008734 67545
LEDSAT
1 49069U 21073D   22258.50165286  .00004227  00000-0  26748-3 0  9998
2 49069  97.5168 329.6112 0026282 349.1748  10.8912 15.09252929 59410
CUTE
1 49263U 21088D   22258.18308490  .00006234  00000-0  45706-3 0  9995
2 49263  97.5822 324.3123 0021824 117.7421 242.6022 15.03678168 52906
Binar-1
1 49272U 98067SR  22258.31199024  .00546963  13593-3  12662-2 0  9998
2 49272  51.6244 216.0674 0003336 105.0792 255.0585 15.96576898 53870
TeikyoSat 4
1 49396U 21102B   22258.10496481  .00001957  00000-0  15819-3 0  9998
2 49396  97.5282 313.3273 0016047 317.8574  42.1416 15.00829944 46494
Z-Sat
1 49399U 21102E   22258.45955145  .00001896  00000-0  14543-3 0  9991
2 49399  97.5255 314.7504 0021870 285.7729  74.1085 15.02801065 46600
KOSEN 1
1 49402U 21102H   22258.39055279  .00003002  00000-0  22110-3 0  9998
2 49402  97.5192 314.8651 0020907 275.4612  84.4229 15.03925456 46624
HO-113
1 50466U 21131B   22258.52575532  .00000244  00000-0  94391-4 0  9992
2 50466  98.5757 335.7179 0003778 228.4964 131.5899 14.38524129 37868
Tevel
1 50999U 22002R   22258.45896581  .00009070  00000-0  47553-3 0  9996
2 50999  97.4733 324.1054 0012449 107.0756  13.8952 15.15929614 37058
Grizu-263a
1 51025U 22002AT  22258.00698217  .00019022  00000-0  91618-3 0  9993
2 51025  97.4899 324.7539 0013634 112.5602 247.7076 15.18708177 37028
NO-116
1 51031U 22002AZ  22258.17656238  .00015795  00000-0  79357-3 0  9994
2 51031  97.4853 324.5352 0014161 111.5349 248.7395 15.17268548 37037
IRIS-A
1 51044U 22002BN  22258.43462165  .00006072  00000-0  33692-3 0  9991
2 51044  97.4740 323.6893 0010703 111.3045 248.9330 15.14070987 37020
DELFI-PQ
1 51074U 22002CU  22258.14049308  .00018074  00000-0  86560-3 0  9999
2 51074  97.4978 325.4491 0014467 139.0511 221.1813 15.18906565 37063
SO-115
1 51080U 22002DA  22257.64394132  .00009817  00000-0  48904-3 0  9993
2 51080  97.4996 324.7753 0014391 140.6997 219.5284 15.17683874 36971
SO-114
1 51081U 22002DB  22258.43549459  .00012919  00000-0  64174-3 0  9990
2 51081  97.4984 325.5321 0014759 138.0567 222.1800 15.17706121 37090
OreSat0
1 52017U 22026K   22258.55356015  .00009542  00000-0  49584-3 0  9999
2 52017  97.5070 257.3098 0025413 325.6614  34.2975 15.16016792 27839
Planetum 1
1 52738U 22057G   22258.30541390  .00008698  00000-0  49982-3 0  9991
2 52738  97.5198  11.5581 0007446 213.8540 146.2216 15.12712887 17014
Foresail-1
1 52766U 22057AL  22258.61767543  .00005356  00000-0  29913-3 0  9996
2 52766  97.5296  12.2314 0013133 197.1657 219.5923 15.13873513 17079
SNUGLITE 2
1 52899U 22065F   22258.51798588  .00000694  00000-0  15922-3 0  9999
2 52899  98.0313  46.8348 0008319   3.5380 356.5894 14.58417028 10823
CTIM
1 52950U 22074G   22258.57171403  .00013681  00000-0  55062-3 0  9993
2 52950  45.0098  68.9279 0004033 296.3325  63.7151 15.24874590 11482
GREENCUBE
1 53106U 22080B   22258.34266426 -.00000003  00000-0  00000-0 0  9993
2 53106  70.1577  55.2008 0008582 243.2223 116.7559  6.42557972  4099
